Regional Weather Roundup
Issued by NWS Jackson, KY

Home | Current Version | Previous Version | Graphics & Text | Print | Product List | Glossary On
Versions: 1 2 3 4 5 6 7 8 9 10 11 12 13 14 15 16 17 18 19 20 21 22 23 24 25 26 27 28 29 30 31 32 33 34 35 36 37 38 39 40 41 42 43 44 45 46 47
000
ASUS43 KJKL 080210
RWRJKL

EAST KENTUCKY HOURLY WEATHER ROUNDUP
NATIONAL WEATHER SERVICE JACKSON KY
900 PM EST SUN FEB 07 2016

NOTE: "FAIR" INDICATES FEW OR NO CLOUDS BELOW 12,000 FEET WITH
NO SIGNIFICANT WEATHER AND/OR OBSTRUCTIONS TO VISIBILITY.

* THESE REPORTS ARE NOT UNDER NWS QUALITY CONTROL AND MAY NOT
  REPORT WEATHER SUCH AS PRECIPITATION AND FOG.

KYZ079-080-083-085-087-088-110-112-115-119-120-080300
...EASTERN KENTUCKY...

CITY           SKY/WX    TMP DP  RH WIND       PRES   REMARKS
JACKSON        CLEAR     44  19  36 SW5       29.90F
LONDON         CLEAR     38  23  55 CALM      29.91F
SOMERSET*      CLEAR     39  23  52 CALM      29.93F
MONTICELLO*    PTCLDY    30  25  81 CALM      29.94F
WILLIAMSBURG*  CLEAR     43  19  39 SW3       29.93S
MIDDLESBORO*   CLEAR     33  26  76 CALM      29.94F
HARLAN APT*      N/A     36  25  64 CALM      29.92F
HAZARD APT*    CLEAR    N/A N/A N/A CALM      29.90F
BLACK MTN*       N/A     30  19  64 SW5         N/A  WCI  25
BIG SANDY*     CLEAR     42  23  47 CALM      29.90F
MOREHEAD APT*  PTCLDY    43  21  42 SW9       29.91F
$$

KYZ035-036-041-042-044-050-067-078-099-080300
...CENTRAL KENTUCKY...

CITY           SKY/WX    TMP DP  RH WIND       PRES   REMARKS
MT STERLING*   CLEAR     41  23  48 SW7       29.90F
DANVILLE*      PTCLDY    37  23  56 CALM      29.91F
RICHMOND*      PTCLDY    43  19  39 SW7       29.90F
LEXINGTON      CLEAR     41  21  44 S9        29.88F
FRANKFORT      PTCLDY    41  21  44 S5        29.86F
$$

KYZ091>093-OHZ055-061-077-WVZ005-015-034-035-042-080300
...SOUTHERN OHIO/WEST VIRGINIA...

CITY           SKY/WX    TMP DP  RH WIND       PRES   REMARKS
COVINGTON      CLOUDY    46  21  37 S8        29.84F
COLUMBUS       MOCLDY    41  20  43 S5        29.84F
DAYTON         CLOUDY    46  23  40 S12       29.82F
WILMINGTON     PTCLDY    40  25  55 S7        29.84F
HUNTINGTON       N/A     45  21  38 CALM      29.89S
CHARLESTON       N/A     40  24  53 CALM      29.89F
PINEVILLE*       N/A     30  24  77 MISG      29.94F
BECKLEY          N/A     32  20  61 S3        29.88F
$$

VAZ002-007-008-TNZ017-027-036-066-071-080300
...SOUTHWEST VIRGINIA/EAST TENNESSEE...

CITY           SKY/WX    TMP DP  RH WIND       PRES   REMARKS
BRISTOL        PTCLDY    34  24  67 CALM      29.93F
KNOXVILLE      CLEAR     42  23  46 SW7       29.95S
OAK RIDGE      CLOUDY    40  26  57 CALM      29.96F
CROSSVILLE     CLEAR     41  20  43 SW3       29.94F
NASHVILLE      CLOUDY    50  19  29 SW6       29.94F
$$

...KEY TO REMARKS...
VSB - VISIBILITY IN MILES
WCI - WIND CHILL INDEX
HX  - HEAT INDEX

$$



USA.gov is the U.S. government's official web portal to all federal, state and local government web resources and services.